Location: Orange Harbor Mobile Home Park
(26.6923°N, 81.7937°W)
Time: 05:54:43
(UTC+00:00)

Hubble Space Telescope - Visible Passes

Search period start: 18 June 2021 00:00
Search period end: 28 June 2021 00:00
Orbit: 535 x 539 km, 28.5° (Epoch: 17 June)

Date Brightness Start Highest point End Pass type
(mag) Time Alt. Az. Time Alt. Az. Time Alt. Az.
18 Jun 2.1 01:13:18 10° W 01:16:48 27° SSW 01:19:30 14° SSE visible
19 Jun 2.5 01:02:39 10° WSW 01:05:47 21° SSW 01:08:56 10° SSE visible
20 Jun 2.9 00:52:07 10° WSW 00:54:46 16° SSW 00:57:24 10° SSE visible
